AirNav   TITAN Aviation Fuels
 
 1627 users online  

90KS Sunset Strip Airpark
Topeka, Kansas, USA

GOING TO TOPEKA?


FAA INFORMATION EFFECTIVE 21 APRIL 2022

Location

FAA Identifier: 90KS
Lat/Long: 38-58-57.0000N 095-35-41.9200W
38-58.950000N 095-35.698667W
38.9825000,-95.5949778
(estimated)
Elevation: 1075 ft. / 328 m (estimated)
Variation: 04E (2000)
From city: 6 miles SE of TOPEKA, KS
Time zone: UTC -5 (UTC -6 during Standard Time)
Zip code: 66409

Airport Operations

Airport use: Private use. Permission required prior to landing
Activation date: 05/2001
Control tower: no
ARTCC: KANSAS CITY CENTER
FSS: WICHITA FLIGHT SERVICE STATION
Attendance: UNATNDD
Wind indicator: yes
Segmented circle: no

Airport Communications

WX ASOS at FOE (4 nm SW): PHONE 785-862-8258
WX ASOS at TOP (5 nm N): 121.275 (785-234-1591)
WX ASOS at LWC (18 nm E): 121.225 (785-749-1309)

Nearby radio navigation aids

VOR radial/distance  VOR name  Freq  Var
TOPr188/9.5TOPEKA VORTAC117.8005E

 
NDB name  Hdg/Dist  Freq  Var  ID
BILOY148/9.352105ETO - ---

Airport Services

Runway Information

Runway 18/36

Dimensions: 2600 x 100 ft. / 792 x 30 m
Surface: turf
RUNWAY 18  RUNWAY 36
Traffic pattern: leftright
Obstructions: none25 ft. trees, 20 ft. from runway

Airport Ownership and Management from official FAA records

Ownership: Privately-owned
Owner: SUNSET STRIP HOMEOWNERS
4624 SE PAULEN ROAD
BERRYTON, KS 66409
Phone 785-231-8502
Manager: GREG HUNSICKER
4624 SE PAULEN RD
BERRYTON, KS 66409
Phone 785-231-8502

Airport Operational Statistics

Aircraft based on the field: 9
Single engine airplanes: 9
    

Additional Remarks

FOR CD CTC KANSAS CITY ARTCC AT 913-254-8508.

Instrument Procedures

There are no published instrument procedures at 90KS.

Some nearby airports with instrument procedures:

KFOE - Topeka Regional Airport (4 nm SW)
KTOP - Philip Billard Municipal Airport (5 nm N)
KLWC - Lawrence Regional Airport (18 nm E)
KOWI - Ottawa Municipal Airport (31 nm SE)
KIXD - New Century AirCenter Airport (34 nm E)
 
Loc | Ops | Rwys | IFR | FBO | Links
Com | Nav | Svcs | Stats | Notes
Area around 90KS (Sunset Strip Airpark)
 
Road maps at: MapQuest Bing Google
 
Aerial photo
WARNING: Photo may not be current or correct
Aerial photo of 90KS (Sunset Strip Airpark)
Photo by Greg Hunsicker
Photo taken 08-May-2010
looking south.

Do you have a better or more recent aerial photo of Sunset Strip Airpark that you would like to share? If so, please send us your photo.

 
Sectional chart

 
Airport distance calculator
Flying to Sunset Strip Airpark? Find the distance to fly.

From to 90KS

Sunrise and sunset
Times for 18-May-2022
 Local
(UTC-5)
 Zulu
(UTC)
Morning civil twilight05:3810:38
Sunrise06:0811:08
Sunset20:3001:30
Evening civil twilight21:0002:00

Current date and time
Zulu (UTC)  18-May-2022 16:59:09
Local (UTC-5)  18-May-2022 11:59:09
 
METAR
KFOE 
4nm SW 
181653Z 24008KT 10SM CLR 26/19 A2987
KTOP 
5nm N 
181653Z 27008KT 10SM CLR 26/18 A2986 RMK AO2 SLP104 T02560183
KLWC 
18nm E 
181652Z AUTO VRB04KT 10SM CLR 24/18 A2987 RMK AO1 SLP108 T02440178
TAF
KFOE 
4nm SW 
181131Z 1812/1912 35009KT P6SM SCT060 BKN150 FM190200 12004KT P6SM FEW250
KTOP 
5nm N 
181131Z 1812/1912 35007KT P6SM SCT070 BKN180 FM190200 12003KT P6SM FEW250
NOTAMs
Click for the latest NOTAMs
NOTAMs are issued by the DoD/FAA and will open in a separate window not controlled by AirNav.

 

 
 

Would you like to see your business listed on this page?

 If your business provides an interesting product or service to pilots, flight crews, aircraft, or users of the Sunset Strip Airpark, you should consider listing it here.  To start the listing process, click on the button below
 
Add a business
 

Other Pages about Sunset Strip Airpark

Update a link
 
Copyright © AirNav, LLC. All rights reserved. Privacy Policy  Contact